Regional Weather Roundup
Issued by NWS Grand Forks, ND

Home | Current Version | Previous Version | Text Only | Print | Product List | Glossary Off
Versions: 1 2 3 4 5 6 7 8 9 10 11 12 13 14 15 16 17 18 19 20 21 22 23 24 25 26 27 28 29 30 31 32 33 34 35 36 37 38 39 40 41 42 43 44 45 46 47 48 49 50

000
ASUS43 KFGF 290031
RWRFGF
PRAIRIE TO PINES  WEATHER ROUNDUP
NATIONAL WEATHER SERVICE EASTERN NORTH DAKOTA/GRAND FORKS ND
600 PM CST WED JAN 28 2015

 **SATELLITE DATA USED TO AUGMENT SKY COVER AT AUTOMATED STATIONS**
 *****  WEATHER ACROSS EASTERN NORTH DAKOTA  *****

CITY           SKY/WX    TMP DP  RH WIND       PRES   REMARKS
GRAND FORKS    FRZ DRZL  32  30  93 N24G30    29.89R WCI  19
6HR MIN TEMP:  32; 6HR MAX TEMP:  34; 6HR PCP: TRACE;

GRAND FRKS AFB FRZ DRZL  32  30  93 N21       29.93R WCI  20
GRAND FRKS NWS   N/A     30 N/A N/A N16         N/A  WCI  19
DEVILS LAKE    CLOUDY    27  23  86 N21G26    29.97R WCI  13
6HR MIN TEMP:  27; 6HR MAX TEMP:  32;

FARGO          CLOUDY    34  32  92 NW16      29.86R FOG     WCI  24
WAHPETON ARPT  CLOUDY    32  32 100 NW7       29.85R
$$

 ***** WEATHER ACROSS CENTRAL AND WESTERN NORTH DAKOTA  *****

CITY           SKY/WX    TMP DP  RH WIND       PRES   REMARKS
BISMARCK       CLOUDY    33  29  85 NW22G32   30.06R WCI  21
6HR MIN TEMP:  33; 6HR MAX TEMP:  38;

MINOT          CLOUDY    28  25  88 NW18      30.06R WCI  15
6HR MIN TEMP:  28; 6HR MAX TEMP:  29;

JAMESTOWN      CLOUDY    32  29  88 N20       29.91R WCI  20
6HR MIN TEMP:  32; 6HR MAX TEMP:  33;

MINOT AFB      CLOUDY    28  28 100 NW21      30.06R WCI  15
GARRISON         N/A     30  27  88 NW22      30.07R WCI  17
WILLISTON      CLOUDY    33  29  85 NW20G29   30.19R WCI  21
6HR MIN TEMP:  32; 6HR MAX TEMP:  34;

DICKINSON      CLOUDY    32  29  88 NW26G35   30.10R WCI  18
6HR MIN TEMP:  31; 6HR MAX TEMP:  44;

HETTINGER      CLOUDY    33  28  81 NW26G38   30.11R WCI  20
6HR MIN TEMP:  32; 6HR MAX TEMP:  47;

$$

 *****  OTHER AIRPORT OBSERVATIONS IN OUR AREA  *****

CITY           SKY/WX    TMP DP  RH WIND       PRES   REMARKS
WALHALLA         N/A     23  23 100 NW24G31   29.98R WCI   7
GRAFTON AIRPOR NOT AVBL
VALLEY CITY AR LGT SNOW  32  32 100 NW20G32   29.90R WCI  20
CANDO          CLOUDY    25  23  93 NW21      30.01R WCI  10
CAVALIER APRT  CLOUDY    25  23  93 NW17G29   29.96R WCI  11
GWINNER        CLOUDY    34  34 100 N16       29.89R WCI  23
ROLLA          MOCLDY    19  19 100 NW20      30.00R WCI   4
 ***** THE ABOVE OBSERVATIONS ARE NON NWS ARE NOT QUALITY
       CONTROLLED AND MAY MIS-REPORT RAIN FOR SNOW...
$$

  *****  WEATHER ACROSS NORTHERN MINNESOTA  *****

CITY           SKY/WX    TMP DP  RH WIND       PRES   REMARKS
FLAG ISLAND    CLOUDY    28  28 100 NW5       29.83R FOG     WCI  23
WARROAD        CLOUDY    32  28  86 NW6       29.83S FOG
ROSEAU         CLOUDY    34  28  80 N8        29.84R FOG
HALLOCK        CLOUDY    27  27 100 NW17G26   29.91R FOG     WCI  14
THF RVR FALLS  CLOUDY    32  30  93 NW12      29.84R WCI  23
6HR MIN TEMP:  32; 6HR MAX TEMP:  34;

BAUDETTE       CLOUDY    32  30  92 CALM      29.81R FOG
6HR MIN TEMP:  30; 6HR MAX TEMP:  31;

WASKISH        MIX PCPN  32  30  93 CALM      29.81R
CROOKSTON      MIX PCPN  32  32 100 N20G25    29.88R WCI  20
STEPHEN NDAWN    N/A     30  30 100 N20         N/A  WCI  18
GREENBUSH NDAW   N/A     32  32 100 NW17        N/A  WCI  21
$$
  *****  WEATHER ACROSS CENTRAL AND WEST MINNESOTA  *****

CITY           SKY/WX    TMP DP  RH WIND       PRES   REMARKS
FOSSTON        MIX PCPN  30  30 100 NW9       29.83R WCI  22
BEMIDJI        RAIN      31  31 100 CALM      29.80R
PARK RAPIDS    FOG       31  31 100 W3        29.79R VSB 3/4
6HR MIN TEMP:  31; 6HR MAX TEMP:  32;

ELBOW LAKE     FOG       31  31 100 W3        29.82R VSB 1/4
WADENA         FOG       28  28 100 CALM      29.81R VSB 1/2
DETROIT LAKES  CLOUDY    32  32 100 W6        29.82R FOG
MOORHEAD       CLOUDY    34  34 100 NW14      29.86R FOG     WCI  24
FERGUS FALLS   FOG       32  32 100 W3        29.86R VSB 1/4
MORRIS MN      FOG       32  32 100 CALM      29.81R VSB 1/4
STAPLES        FOG       28  28 100 S3        29.81R VSB 1
$$
  *****  WEATHER ELSEWHERE ACROSS MINNESOTA  *****

CITY           SKY/WX    TMP DP  RH WIND       PRES   REMARKS
DULUTH         CLOUDY    29  22  75 S5        29.82R WCI  24
6HR MIN TEMP:  25; 6HR MAX TEMP:  29;

INTRNTL FALLS  CLOUDY    27  26  96 CALM      29.81R FOG
6HR MIN TEMP:  27; 6HR MAX TEMP:  28;

ELY            CLOUDY    27  23  86 CALM      29.81S
CLOQUET        CLOUDY    28  23  80 CALM      29.82S HAZE
WHEATON        CLOUDY    32  30  93 NW3       29.85R FOG
BRAINERD       CLOUDY    29  27  92 W5        29.82R FOG     WCI  24
6HR MIN TEMP:  29; 6HR MAX TEMP:  29;

HIBBING        CLOUDY    28  22  78 CALM      29.81R
6HR MIN TEMP:  26; 6HR MAX TEMP:  28;

ALEXANDRIA     CLOUDY    31  30  96 CALM      29.81R FOG
6HR MIN TEMP:  30; 6HR MAX TEMP:  32;

SAINT CLOUD    CLOUDY    29  28  96 E3        29.81R FOG
6HR MIN TEMP:  29; 6HR MAX TEMP:  30;

MINNEAPOLIS    CLOUDY    31  27  85 SE10      29.81F FOG     WCI  22
6HR MIN TEMP:  28; 6HR MAX TEMP:  31;

$$

  *****  WEATHER ACROSS SOUTH DAKOTA  *****

CITY           SKY/WX    TMP DP  RH WIND       PRES   REMARKS
SIOUX FALLS    PTCLDY    36  33  89 NE5       29.75R
6HR MIN TEMP:  36; 6HR MAX TEMP:  46;

BROOKINGS      NOT AVBL
WATERTOWN      CLOUDY    36  32  85 N9        29.79R
6HR MIN TEMP:  34; 6HR MAX TEMP:  40;

HURON          CLOUDY    42  37  82 MISG      29.83R
6HR MIN TEMP:  39; 6HR MAX TEMP:  46;

SISSETON       NOT AVBL
ABERDEEN       CLOUDY    35  31  85 N28G38    29.91R WCI  22
6HR MIN TEMP:  35; 6HR MAX TEMP:  43;

MITCHELL       PTCLDY    45  38  76 NW23      29.83R
PIERRE         CLOUDY    41  33  73 N30G44    29.95R
6HR MIN TEMP:  43; 6HR MAX TEMP:  60;

MOBRIDGE       CLOUDY    36  29  75 N32G43    29.96R
RAPID CITY     MOCLDY    44  31  60 N26G38    30.06R
6HR MIN TEMP:  44; 6HR MAX TEMP:  58;

$$

  *****  SOME WEATHER IN NEARBY STATES *****

CITY           SKY/WX    TMP DP  RH WIND       PRES   REMARKS
GLASGOW MT     CLEAR     35  29  78 NW10      30.25R
6HR MIN TEMP:  33; 6HR MAX TEMP:  38;

GREAT FALLS MT CLOUDY    39  32  76 E7        30.31R
6HR MIN TEMP:  39; 6HR MAX TEMP:  47;

CHEYENNE WY    MOCLDY    41  32  70 N16G23    30.15R
6HR MIN TEMP:  41; 6HR MAX TEMP:  50;

SCOTTSBLUFF NE CLOUDY    46  36  68 W10       30.12R
OMAHA NE       PTCLDY    49  34  56 NW5       29.69S
6HR MIN TEMP:  46; 6HR MAX TEMP:  59;

DES MOINES IA  CLOUDY    50  37  61 E7        29.71R
6HR MIN TEMP:  42; 6HR MAX TEMP:  52;

DAVENPORT IA   CLOUDY    36  29  75 SE23      29.84F
6HR MIN TEMP:  32; 6HR MAX TEMP:  36;

CHICAGO IL     CLOUDY    31  21  66 SE16G23   29.99F WCI  20
6HR MIN TEMP:  31; 6HR MAX TEMP:  33;

EAU CLAIRE WI  MOCLDY    29  23  78 SE8       29.83S WCI  21
6HR MIN TEMP:  28; 6HR MAX TEMP:  30;

LA CROSSE WI   CLOUDY    35  23  61 S12G23    29.83R
6HR MIN TEMP:  30; 6HR MAX TEMP:  36;

$$

  *****  SOME NATIONAL WEATHER *****

CITY           SKY/WX    TMP DP  RH WIND       PRES   REMARKS
LA GUARDIA NY  CLEAR     31  10  41 NW7       30.19R WCI  24
6HR MIN TEMP:  30; 6HR MAX TEMP:  34;

RALEIGH NC     PTCLDY    34  14  43 CALM      30.29R
6HR MIN TEMP:  34; 6HR MAX TEMP:  46;

ATLANTA GA     CLEAR     49  23  36 CALM      30.24R
6HR MIN TEMP:  48; 6HR MAX TEMP:  55;

NEW ORLEANS LA PTCLDY    60  43  53 S9        30.24R
6HR MIN TEMP:  59; 6HR MAX TEMP:  68;

OKLAHOMA CITY  PTCLDY    69  43  38 SW9       29.89R
6HR MIN TEMP:  69; 6HR MAX TEMP:  79;

ALBUQUERQUE NM MOCLDY    58  29  33 N15       30.18R
6HR MIN TEMP:  53; 6HR MAX TEMP:  63;

SALT LAKE CITY MOCLDY    46  37  71 N7        30.30S
6HR MIN TEMP:  45; 6HR MAX TEMP:  50;

LOS ANGELES CA CLOUDY    65  49  56 NW8       30.07F
6HR MIN TEMP:  63; 6HR MAX TEMP:  72;

BOISE ID       CLEAR     46  37  71 NW3       30.33S



USA.gov is the U.S. government's official web portal to all federal, state and local government web resources and services.